Home   Weather   Dąbrowa Górnicza   Past weeks

Flag for Poland Past Weather in Dąbrowa Górnicza, Poland — Yesterday and Last 2 Weeks

Now
77 °F

Passing clouds.


Feels Like: 78 °F
Forecast: 52 / 75 °F
Wind: 8 mph from South

Location: Katowice Airport

Current Time: May 28, 2017 at 6:47:51 pm

Latest Report: May 28, 2017 at 6:00 pm


Visibility: N/A

Pressure: 30.15 "Hg

Humidity: 32%

Dew Point: 45 °F

Location of Dąbrowa GórniczaLocation

Past Weather in Dąbrowa Górnicza — Graph

°F

Dąbrowa Górnicza Temperature Yesterday

Maximum temperature yesterday: 70 °F (at 4:30 pm)
Minimum temperature yesterday: 46 °F (at 5:00 am)
Average temperature yesterday: 59 °F

High & Low Weather Summary for the Past Weeks

 TemperatureHumidityPressure
High81 °F (May 19, 2:00 pm)100% (May 13, 11:00 pm)30.39 "Hg (May 13, 11:00 pm)
Low37 °F (May 14, 5:00 am)31% (May 18, 4:00 pm)29.86 "Hg (May 19, 5:30 pm)
Average58 °F72%30.12 "Hg
* Reported May 13 5:00 pm — May 28 5:30 pm, Dąbrowa Górnicza. Weather by CustomWeather, © 2017

Note: Actual official high and low records may vary slightly from our data, if they occured in-between our weather recording intervals... More about our weather records

Advertising

Dąbrowa Górnicza Weather History for the Previous 24 Hours

Scroll right to see more
 ConditionsComfort  
Time TempWeatherWind HumidityBarometerVisibility
5:30 pm
Sun, May 28
77 °FPassing clouds.6 mph34%30.15 "HgN/A
5:00 pm77 °FSunny.6 mph34%30.18 "Hg10 mi
4:30 pm75 °FPassing clouds.7 mph34%30.18 "HgN/A
4:00 pm75 °FPassing clouds.7 mph31%30.18 "HgN/A
3:30 pm75 °FPassing clouds.9 mph34%30.18 "HgN/A
3:00 pm75 °FPassing clouds.7 mph36%30.21 "HgN/A
2:30 pm75 °FSunny.5 mph41%30.21 "Hg10 mi
2:00 pm73 °FPassing clouds.6 mph41%30.21 "HgN/A
1:30 pm73 °FPassing clouds.8 mph41%30.21 "HgN/A
1:00 pm72 °FPassing clouds.9 mph44%30.24 "HgN/A
12:30 pm72 °FPassing clouds.8 mph47%30.24 "HgN/A
12:00 pm72 °FPassing clouds.7 mph44%30.24 "HgN/A
11:30 am70 °FPassing clouds.7 mph43%30.24 "HgN/A
11:00 am70 °FPassing clouds.7 mph46%30.24 "HgN/A
10:30 am68 °FPassing clouds.10 mph46%30.24 "HgN/A
10:00 am68 °FPassing clouds.10 mph46%30.27 "HgN/A
9:30 am66 °FPassing clouds.9 mph52%30.27 "HgN/A
9:00 am66 °FPassing clouds.6 mph52%30.27 "HgN/A
8:30 am64 °FSunny.1 mph60%30.27 "Hg10 mi
8:00 am63 °FSunny.2 mph64%30.27 "Hg10 mi
7:30 am59 °FPassing clouds.3 mph77%30.27 "HgN/A
7:00 am55 °FSunny.2 mph82%30.27 "Hg10 mi
6:30 am50 °FSunny.2 mph94%30.27 "Hg10 mi
6:00 am46 °FSunny.1 mph93%30.27 "Hg10 mi
5:30 am45 °FSunny.5 mph93%30.27 "Hg10 mi
5:00 am43 °FClear.3 mph93%30.27 "Hg6 mi
4:30 am43 °FClear.2 mph93%30.27 "Hg6 mi
4:00 am43 °FClear.2 mph93%30.27 "Hg6 mi
3:30 am43 °FClear.2 mph100%30.27 "Hg4 mi
3:00 am43 °FFog.2 mph100%30.24 "Hg5 mi
2:30 am43 °FFog.2 mph100%30.24 "HgN/A
2:00 am45 °FClear.2 mph93%30.24 "Hg10 mi
1:30 am45 °FFog.2 mph93%30.24 "HgN/A
1:00 am46 °FClear.1 mph93%30.27 "Hg10 mi
12:30 am46 °FClear.2 mph93%30.24 "Hg10 mi
12:00 am48 °FClear.2 mph94%30.24 "Hg10 mi
11:30 pm
Sat, May 27
50 °FClear.2 mph88%30.24 "Hg10 mi
11:00 pm52 °FClear.2 mph82%30.24 "Hg10 mi
10:30 pm52 °FClear.1 mph88%30.24 "Hg10 mi
10:00 pm52 °FClear.3 mph88%30.24 "Hg10 mi
9:30 pm54 °FClear.1 mph82%30.24 "Hg10 mi
9:00 pm59 °FClear.2 mph72%30.21 "Hg10 mi
8:30 pm63 °FSunny.5 mph56%30.21 "Hg10 mi
8:00 pm66 °FSunny.6 mph49%30.21 "Hg10 mi
7:30 pm66 °FSunny.6 mph49%30.21 "Hg10 mi
7:00 pm68 °FSunny.6 mph46%30.21 "Hg10 mi
6:30 pm66 °FSunny.7 mph46%30.21 "Hg10 mi
6:00 pm68 °FPassing clouds.8 mph43%30.21 "HgN/A
Weather by CustomWeather, © 2017

See weather overviewHow to use our weather pages